Regional Weather Roundup
Issued by NWS

Home | Current Version | Previous Version | Graphics & Text | Print | Product List | Glossary On
Versions: 1 2 3 4 5 6 7 8 9 10 11 12 13 14 15 16 17 18 19 20 21 22 23 24 25 26 27 28 29 30 31 32 33 34 35 36 37 38 39 40 41 42 43 44 45 46 47 48 49 50
000
ASUS45 KCYS 272310
RWRWY

WYOMING REGIONAL WEATHER ROUNDUP
NATIONAL WEATHER SERVICE CHEYENNE WY
400 PM MST THU NOV 27 2014

NOTE:  "FAIR" INDICATES FEW OR NO CLOUDS BELOW 12,000 FEET
WITH NO SIGNIFICANT WEATHER AND/OR OBSTRUCTIONS TO VISIBILITY.

WYZ001-280000-
YELLOWSTONE NATIONAL PARK

CITY           SKY/WX    TMP DP  RH WIND       PRES   REMARKS
LK YELLOWSTONE   N/A     37  28  70 VRB3      30.20R
W YELLOWSTONE  NOT AVBL

$$
WYZ002>013-054>058-071-098>099-280000-
NORTHERN WYOMING

CITY           SKY/WX    TMP DP  RH WIND       PRES   REMARKS
JACKSON        NOT AVBL
CODY           PTCLDY    54  27  35 SW21      29.96S
GREYBULL       PTCLDY    29  25  85 SW3       29.98S
WORLAND        CLEAR     33  28  81 SW6       29.99R WCI  28
SHERIDAN       CLEAR     50  27  40 W9        29.87S
BUFFALO        CLEAR     46  27  47 VRB5      29.92R
GILLETTE       CLEAR     46  30  53 SW17      29.90R
HULETT           N/A    N/A N/A N/A MISG        N/A
NEWCASTLE      FAIR      45  28  53 CALM      29.95S

$$
WYZ014>020-022>026-101>103-280000-
CENTRAL WYOMING

CITY           SKY/WX    TMP DP  RH WIND       PRES   REMARKS
BIG PINEY      CLEAR    N/A N/A N/A E7        30.24S
PINEDALE       CLEAR     41  28  60 SW3       30.26S
DUBOIS         MOCLDY    43  27  52 W31G38    30.13S
LANDER         PTCLDY    57  23  26 VRB7G35   30.05R
RIVERTON       CLEAR     51  30  44 W7        30.06S
CASPER         CLEAR     49  27  42 SW13      30.05F
DOUGLAS        PTCLDY    54  26  34 W24G33    29.99S

$$
WYZ021-027>030-104>119-280000-
SOUTHERN WYOMING

CITY           SKY/WX    TMP DP  RH WIND       PRES   REMARKS
EVANSTON       MOCLDY    50  21  32 SW14      30.28S
FORT BRIDGER   FAIR      51  24  34 W12       30.29R
ROCK SPRINGS   MOCLDY    47  22  37 W22       30.23F
DIXON          FAIR      47  23  38 SW7       30.29F
RAWLINS        PTCLDY    46  22  38 W13G20    30.21R
SARATOGA       FAIR      45  21  39 SW7       30.24S
LARAMIE        PTCLDY    46  21  37 W24G35    30.18S
CHEYENNE       MOCLDY    53  21  28 W29G40    30.10F
TORRINGTON     CLEAR     58  25  28 W23G33    29.98S
PINE BLUFFS    FAIR      46  28  49 W13       30.07F

$$


USA.gov is the U.S. government's official web portal to all federal, state and local government web resources and services.